EHI
0 0 0 0 0 0 0 0 0 0 0 0 0 0 0 0 0 0 0 0 0 0 0 0 0 0 0 0 0 0 0 0 0 0 0 0 0 0 0 0 0 0 0 0
0 0 0 0 0 0 0 0 0 0 0 0 0 0 0 0 0 0 0 0 0 0 0 0 0 0 0 0 0 0 0 0 0 0 0 0 0 0 0 0 0 0 0 0
0 0 0 0 0 0 0 0 0 0 0 0 0 0 0 0 0 0 0 0 0 0 0 0 0 0 0 0 0 0 0 0 0 0 0 0 0 0 0 0 0 0 0 0
0 0 0 0 0 0 0 0 0 0 0 0 0 0 0 0 0 0 0 0 0 0 0 0 0 0 0 0 0 0 0 0 0 0 0 0 0 0 0 0 0 0 0 0
0 0 0 0 0 0 0 0 0 0 0 0 0 0 0 0 0 0 0 0 0 0 0 0 0 0 0 0 0 0 0 0 0 0 0 0 0 0 0 0 0 0 0 0
0 0 0 0 0 0 0 0 0 0 0 0 0 0 0 0 0 0 0 0 0 0 0 0 0 0 0 0 0 0 0 0 0 0 0 0 0 0 0 0 0 0 0 0
0 0 0 0 0 0 0 0 0 0 0 0 0 0 0 0 0 0 0 0 0 0 0 0 0 0 0 0 0 0 0 0 0 0 0 0 0 0 0 0 0 0 0 0
0 0 0 0 0 0 0 0 0 0 0 0 0 0 0 0 0 0 0 0 0 0 0 0 0 0 0 0 0 0 0 0 0 0 0 0 0 0 0 0 0 0 0 0
0 0 0 0 0 0 0 0 0 0 0 0 0 0 0 0 0 0 0 0 0 0 0 0 0 0 0 0 0 0 0 0 0 0 0 0 0 0 0 0 0 0 0 0
0 0 0 0 0 0 0 0 0 0 0 0 0 0 0 0 0 0 0 0 0 0 0 0 0 0 0 0 0 0 0 0 0 0 0 0 0 0 0 0 0 0 0 0
0 0 0 0 0 0 0 0 0 0 0 0 0 0 0 0 0 0 0 0 0 0 0 0 0 0 0 0 0 0 0 0 0 0 0 0 0 0 0 0 0 0 0 0
0 0 0 0 0 0 0 0 0 0 0 0 0 0 0 0 0 0 0 0 0 0 0 0 0 0 0 0 0 0 0 0 0 0 0 0 0 0 0 0 0 0 0 0
0 0 0 0 0 0 0 0 0 0 0 0 0 0 0 0 0 0 0 0 0 0 0 0 0 0 0 0 0 0 0 0 0 0 0 0 0 0 0 0 0 0 0 0
0 0 0 0 0 0 0 0 0 0 0 0 0 0 0 0 0 0 0 0 0 0 0 0 0 0 0 0 0 0 0 0 0 0 0 0 0 0 0 0 0 0 0 0
0 0 0 0 0 0 0 0 0 0 0 0 0 0 0 0 0 0 0 0 0 0 0 0 0 0 0 0 0 0 0 0 0 0 0 0 0 0 0 0 0 0 0 0
0 0 0 0 0 0 0 0 0 0 0 0 0 0 0 0 0 0 0 0 0 0 0 0 0 0 0 0 0 0 0 0 0 0 0 0 0 0 0 0 0 0 0 0
0 0 0 0 0 0 0 0 0 0 0 0 0 0 0 0 0 0 0 0 0 0 0 0 0 0 0 0 0 0 0 0 0 0 0 0 0 0 0 0 0 0 0 0
0 0 0 0 0 0 0 0 0 0 0 0 0 0 0 0 0 0 0 0 0 0 0 0 0 0 0 0 0 0 0 0 0 0 0 0 0 0 0 0 0 0 0 0
0 0 0 0 0 0 0 0 0 0 0 0 0 0 0 0 0 0 0 0 0 0 0 0 0 0 0 0 0 0 0 0 0 0 0 0 0 0 0 0 0 0 0 0
0 0 0 0 0 0 0 0 0 0 0 0 0 0 0 0 0 0 0 0 0 0 0 0 0 0 0 0 0 0 0 0 0 0 0 0 0 0 0 0 0 0 0 0
0 0 0 0 0 0 0 0 0 0 0 0 0 0 0 0 0 0 0 0 0 0 0 0 0 0 0 0 0 0 0 0 0 0 0 0 0 0 0 0 0 0 0 0
0 0 0 0 0 0 0 0 0 0 0 0 0 0 0 0 0 0 0 0 0 0 0 0 0 0 0 0 0 0 0 0 0 0 0 0 0 0 0 0 0 0 0 0
0 0 0 0 0 0 0 0 0 0 0 0 0 0 0 0 0 0 0 0 0 0 0 0 0 0 0 0 0 0 0 0 0 0 0 0 0 0 0 0 0 0 0 0
0 0 0 0 0 0 0 0 0 0 0 0 0 0 0 0 0 0 0 0 0 0 0 0 0 0 0 0 0 0 0 0 0 0 0 0 0 0 0 0 0 0 0 0
0 0 0 0 0 0 0 0 0 0 0 0 0 0 0 0 0 0 0 0 0 0 0 0 0 0 0 0 0 0 0 0 0 0 0 0 0 0 0 0 0 0 0 0
0 0 0 0 0 0 0 0 0 0 0 0 0 0 0 0 0 0 0 0 0 0 0 0 0 0 0 0 0 0 0 0 0 0 0 0 0 0 0 0 0 0 0 0
Wind_Speed
5 6 12 15 15 7 5 6 8 7 4 5 10 13 13 8 7 8 8 8 9 9 7 6 7 7 7 7 7 7 7 7 6 5 5 4 3 3 3 3 5 4 5 6
3 14 14 7 8 8 7 8 8 6 4 5 8 13 12 9 9 10 11 10 10 8 6 6 6 7 8 8 8 8 8 8 7 5 4 3 4 3 2 3 4 4 5 6
14 8 7 8 8 10 12 11 8 6 3 3 4 10 9 7 7 8 9 10 10 11 11 9 8 8 8 9 9 8 8 8 7 6 5 4 3 3 2 3 3 3 5 6
12 8 6 9 11 11 13 9 8 6 3 5 3 7 9 6 7 9 10 9 10 10 10 9 9 9 9 8 8 8 8 7 7 7 7 8 6 5 4 4 3 4 5 5
8 7 8 11 12 11 8 5 7 7 6 5 4 5 10 3 7 9 10 10 10 10 10 10 9 9 8 7 7 7 7 7 7 7 8 8 6 4 3 4 5 4 4 4
9 5 7 8 6 8 5 2 2 2 2 8 9 7 10 6 9 7 8 9 10 10 9 8 7 7 6 6 6 7 7 6 7 7 7 8 8 7 7 7 6 4 3 3
6 7 5 4 4 4 5 5 2 3 5 9 6 7 11 7 7 9 9 9 9 9 9 8 8 8 8 7 7 7 8 7 7 7 7 7 8 8 9 8 7 6 4 3
5 7 7 5 8 8 10 10 8 7 7 4 3 9 9 5 5 5 5 6 7 7 8 9 9 9 9 9 9 8 8 7 7 8 7 6 7 6 5 6 6 6 4 4
5 7 3 5 4 8 7 9 5 3 2 3 6 6 7 2 2 1 2 3 5 6 7 8 8 8 8 9 9 9 9 7 7 8 8 7 7 6 6 6 5 4 4 4
3 5 5 3 2 5 6 6 4 5 5 5 5 5 5 3 3 2 3 4 5 5 5 6 7 8 7 7 7 8 8 8 7 7 7 7 7 7 6 6 6 6 5 4
2 4 4 2 7 8 5 5 4 4 4 4 4 6 4 5 5 5 5 5 5 5 6 6 6 6 6 6 6 7 7 7 6 7 7 7 7 6 6 6 6 5 5 5
2 2 4 6 4 4 5 6 6 5 5 4 3 6 3 1 1 2 2 2 3 3 3 4 5 5 5 6 6 6 7 7 7 7 6 7 6 6 6 5 5 5 5 5
2 2 2 3 2 0 2 3 4 3 2 4 5 7 4 3 4 2 2 2 3 3 4 4 4 4 4 5 5 6 6 6 7 7 7 6 6 6 6 6 5 5 5 5
3 3 5 6 4 2 4 4 5 5 5 5 7 6 5 3 2 2 2 2 3 3 3 4 3 2 2 3 4 5 5 6 6 7 7 7 7 7 6 6 5 5 5 5
0 4 5 7 6 4 5 7 7 7 8 8 7 7 7 4 2 1 1 2 3 3 3 3 3 2 2 2 2 3 4 5 6 6 6 6 6 6 5 5 5 4 4 5
1 3 4 6 6 4 6 7 8 9 8 8 6 8 5 2 1 1 2 3 3 3 2 2 2 2 2 2 2 2 3 4 6 6 6 5 5 6 5 5 5 4 4 4
3 2 2 4 3 2 5 6 6 5 5 6 9 8 2 1 3 4 4 4 3 3 3 3 2 2 2 2 2 2 3 4 5 5 5 5 5 5 5 5 5 5 4 4
5 4 3 2 0 5 5 1 2 3 3 3 4 3 3 3 2 1 1 3 2 1 1 1 2 2 1 1 1 2 3 4 5 5 5 5 5 5 4 4 4 4 3 3
6 4 2 2 2 4 4 4 2 2 4 2 3 3 1 1 2 2 2 1 1 1 1 2 2 2 2 1 2 3 3 3 4 4 4 4 5 5 5 4 4 3 3 3
2 2 2 2 2 3 3 6 6 0 3 4 2 1 1 2 1 2 1 2 3 2 2 2 2 3 3 2 3 4 3 3 3 3 3 4 4 5 5 4 3 3 3 2
1 0 1 1 1 3 5 8 4 2 4 6 3 1 1 2 2 2 3 4 4 4 3 4 4 3 2 2 3 4 3 2 2 3 3 3 3 3 3 3 3 2 2 2
1 0 1 1 1 4 6 5 2 3 5 5 4 2 3 4 5 5 5 5 5 5 5 5 5 4 3 3 4 4 2 1 2 3 3 3 2 2 3 3 2 2 3 2
1 1 1 1 1 2 4 3 4 4 4 4 3 3 4 5 5 6 6 5 5 5 5 4 5 5 5 4 4 4 2 2 3 3 3 2 2 2 2 3 2 2 2 2
3 4 1 1 2 3 5 5 6 5 4 4 4 4 5 6 6 6 5 5 6 6 5 5 6 6 5 4 4 3 2 2 4 4 3 2 2 2 1 1 1 2 2 2
3 3 2 1 2 3 5 6 6 6 6 6 6 6 6 7 6 6 5 5 5 5 4 4 5 5 5 5 5 4 3 3 4 3 3 2 2 1 1 1 0 1 2 3
3 2 1 1 2 2 3 5 5 6 6 5 6 7 6 6 6 6 5 4 4 4 4 5 5 5 4 4 4 4 3 3 3 2 2 1 1 1 1 0 1 2 2 2
Wind_Direction
192 193 213 211 209 218 208 220 238 245 220 204 233 252 260 248 233 238 236 221 215 217 212 199 190 176 168 167 165 167 169 166 157 156 157 154 159 155 148 151 143 142 147 145
196 228 225 209 209 223 232 241 249 269 243 224 250 261 260 243 229 226 224 217 213 210 201 203 191 177 174 176 175 175 173 169 168 170 164 153 144 142 148 144 137 144 155 148
212 227 198 199 208 217 231 228 232 244 301 281 282 281 260 249 233 236 227 215 208 201 197 197 191 188 181 181 181 182 177 171 168 161 147 132 115 107 124 145 145 146 151 142
233 235 201 208 218 207 237 225 219 228 230 259 210 273 269 245 248 237 228 214 208 203 195 192 189 187 187 185 179 180 174 168 167 160 161 159 157 160 172 163 145 138 142 139
236 208 205 218 220 205 227 207 214 221 216 249 229 241 273 242 243 241 225 212 204 198 192 190 189 186 181 175 173 174 166 165 168 167 168 163 157 153 144 140 135 140 135 137
246 231 213 222 223 208 201 161 204 206 190 242 218 207 265 223 221 232 224 209 198 191 188 185 180 171 167 165 165 164 160 163 168 166 168 165 159 152 147 146 149 150 139 137
256 246 231 196 192 197 174 153 188 220 219 241 190 206 248 236 226 214 216 209 196 189 182 176 173 170 170 170 169 166 164 165 167 162 164 164 159 156 156 154 156 152 147 147
232 253 221 209 198 192 200 185 184 199 211 246 198 225 251 250 241 224 210 194 178 181 183 180 179 175 175 176 172 168 170 169 168 165 166 160 155 155 153 151 152 155 158 156
224 251 256 223 204 176 185 208 195 162 190 220 237 261 289 295 288 237 185 162 175 182 180 180 177 173 174 175 174 173 172 170 171 170 162 157 152 151 153 149 144 147 148 145
229 259 261 244 191 204 185 169 153 179 189 225 244 236 240 251 250 233 189 182 189 179 170 169 173 172 172 170 170 171 172 172 171 170 168 162 158 156 156 152 154 155 152 149
244 241 273 225 202 196 171 179 179 184 198 188 224 252 229 213 212 206 203 192 181 176 171 167 166 166 160 157 163 165 166 164 163 165 164 157 156 154 152 154 158 159 155 156
244 228 248 247 256 220 188 185 169 187 219 205 207 259 306 266 230 187 183 168 150 146 147 147 146 144 149 156 162 166 167 165 162 155 150 152 150 150 152 157 160 160 160 162
281 237 276 304 295 329 210 199 191 191 179 198 204 253 327 13 21 41 112 115 124 125 116 110 115 135 151 159 164 166 169 166 159 153 150 149 153 159 164 166 163 161 161 164
289 223 216 227 246 230 266 259 214 183 201 222 226 249 292 326 11 10 48 99 111 120 124 123 120 119 135 154 159 163 168 164 157 153 157 162 168 170 168 164 163 166 166 170
279 246 247 260 266 247 254 250 232 221 213 212 232 238 258 249 218 188 136 115 106 112 119 130 132 130 127 121 137 153 157 157 154 155 161 171 168 160 157 157 162 164 168 176
286 251 264 269 260 248 269 261 239 235 232 230 237 254 256 245 138 138 169 167 158 149 145 127 118 121 129 135 135 134 154 159 154 158 167 164 155 154 159 161 160 160 167 171
253 235 245 265 272 299 269 249 227 222 219 212 229 240 233 202 190 197 193 185 184 170 157 150 146 142 150 157 147 153 157 149 149 154 156 154 155 159 163 160 158 164 170 170
223 234 228 243 68 223 243 277 213 218 239 232 239 241 216 217 211 198 159 163 168 152 140 141 136 128 119 118 117 121 125 137 145 147 147 149 151 155 155 156 163 168 170 175
208 209 206 185 207 270 307 337 340 241 271 287 251 264 286 113 68 25 25 95 147 163 163 160 152 136 120 120 127 114 108 124 136 146 152 158 158 156 155 161 169 169 166 177
195 189 179 175 181 234 296 318 320 177 284 334 335 249 170 108 172 256 359 66 74 73 88 96 100 101 100 103 118 115 116 123 145 158 156 153 154 157 163 169 169 166 167 181
18 37 199 204 218 275 314 324 355 122 280 327 329 291 175 197 193 133 94 76 76 78 79 84 83 78 74 92 108 108 104 119 144 135 126 125 134 148 154 153 155 156 162 161
171 167 208 154 174 279 334 1 15 293 318 336 356 26 66 67 81 90 89 83 77 73 70 75 74 60 43 57 90 91 81 76 92 108 115 118 123 133 134 139 148 157 159 161
312 256 212 161 205 317 350 359 339 344 347 354 17 50 85 87 83 82 80 77 72 69 66 69 76 64 46 47 74 80 55 62 87 96 100 101 99 99 120 141 154 158 161 178
330 351 37 35 334 355 6 10 8 12 17 17 34 56 78 82 80 79 75 70 65 62 63 67 72 65 49 42 53 60 51 70 90 89 83 87 92 83 72 108 156 170 187 200
330 348 10 354 331 357 7 7 10 23 31 39 44 50 64 78 75 77 76 69 65 61 58 64 71 68 55 46 46 44 49 66 77 78 79 78 83 100 84 60 198 214 221 216
357 355 349 299 320 334 335 352 13 34 31 39 57 55 49 64 76 73 69 65 61 58 56 55 56 56 49 45 40 37 42 66 86 79 67 68 75 77 80 55 1 346 287 291